Find Starlink 35868

NORAD ID: 66579 Int'l Des: 2025-268 Owner: SPXS Country: US Constellation: starlink operational
LEOCIRCULAR

实时位置

正在加载3D地球...

关于 Starlink 35868

正在加载描述...

即将过境

Passes for default location (London). Set your location on the main map for personalized predictions.

高度历史

Loading altitude history...

两行轨道根数

1 66579U 25268Y 26105.39041396 .00006083 00000-0 23035-3 0 9998
2 66579 43.0001 139.7102 0001314 277.6309 82.4393 15.27585369 23576
Epoch: Apr 15, 2026 • Age: 21 hours

当前状态

高度 489.6 km
速度 7.62 km/s
星下点 -27.30°S, 42.59°E
发射日期 Nov 21, 2025
运行时间 0.3 years
类型 internet

技术详情

分类 Payload
质量 575.00 kg
干质量 530.00 kg
总质量 575.00 kg
长度 0.30 m
直径 4.10 m
跨度 29.00 m
形状 Box + pan
制造商 SPXS
平台类型 Starlink V2MO
阶段状态 In Orbit
所有者/国家 SPXS/US

Most Searched